[[{"header":{"parameterUnit":"m.s-1","parameterCategory":1,"la1":30.2991,"la2":30.254,"lo1":-89.0895,"lo2":-89.0444,"dy":0.0017,"dx":0.0017,"nx":28,"ny":28,"refTime":"2024-02-09T09:00:00:Z","depth":0,"parameterNumber":2,"parameterNumberName":"U-component_of_WINDS"},"data":[0,0,0,0,0,0,0,0,0,0,0,0,0,0,0,0,0,0,0,0,0,0,0,0,0,0,0,0,0,0,0,0,0,0,0,0,0,0,0,0,0,0,0,0,0,0,0,0,0,0,0,0,0,0,0,0,0,0,-2.3651,-2.3651,0,-2.3714,-2.3715,-2.3716,-2.3708,-2.3707,-2.3706,-2.3705,-2.3771,-2.3773,-2.3776,0,0,0,0,0,0,0,0,0,0,0,0,0,-2.3522,-2.3525,-2.365,-2.3651,-2.3652,-2.3714,-2.3715,-2.3716,-2.3708,-2.3707,-2.3706,-2.3705,-2.377,-2.3773,-2.3776,0,0,0,0,0,0,0,0,0,0,0,0,0,-2.3581,-2.3526,-2.365,-2.3656,-2.3657,-2.3714,-2.3715,-2.3716,-2.3709,-2.3707,-2.3706,-2.3704,-2.3769,-2.3772,-2.3776,-2.3832,0,0,-2.3789,-2.3791,0,0,0,0,0,0,0,0,-2.3578,-2.3586,-2.3654,-2.3655,-2.3657,-2.3702,-2.3694,-2.3755,-2.3709,-2.3689,-2.3705,-2.3703,-2.3749,-2.3754,-2.377,-2.3835,-2.3838,-2.3789,-2.3792,-2.3793,-2.3795,0,0,0,0,0,0,0,-2.3574,-2.3583,-2.3676,-2.3655,-2.3657,-2.3655,-2.3662,-2.3705,-2.3727,-2.3691,-2.369,-2.3698,-2.3749,-2.3766,-2.3771,-2.3839,-2.3789,-2.3793,-2.3795,-2.3797,-2.3954,-2.3955,0,0,0,0,0,0,-2.3568,-2.358,-2.3674,-2.3678,-2.3613,-2.3659,-2.3666,-2.3689,-2.3726,-2.3731,-2.3699,-2.3697,-2.376,-2.3767,-2.3774,-2.3841,-2.3793,-2.3797,-2.38,-2.3952,-2.3954,-2.3956,0,0,0,0,0,0,-2.3566,-2.3577,-2.3671,-2.3629,-2.3641,-2.3663,-2.3688,-2.3691,-2.3707,-2.3733,-2.3736,-2.3712,-2.3759,-2.3768,-2.3818,-2.3843,-2.3799,-2.3803,-2.395,-2.3953,-2.3955,-2.3976,0,0,0,0,0,0,-2.3562,-2.3576,-2.3597,-2.3629,-2.3643,-2.3714,-2.369,-2.3693,-2.3714,-2.3713,-2.3746,-2.375,-2.3758,-2.3812,-2.3822,-2.3848,-2.3806,-2.3948,-2.3951,-2.3954,-2.3973,-2.3979,-2.3984,0,0,0,0,0,-2.3558,-2.3601,-2.3598,-2.361,-2.367,-2.3716,-2.3723,-2.3732,-2.3717,-2.3738,-2.3754,-2.3749,-2.3839,-2.3817,-2.3828,-2.3856,-2.3946,-2.395,-2.3954,-2.3971,-2.3978,-2.3984,0,0,0,0,0,0,-2.3571,-2.3605,-2.3603,-2.3657,-2.3684,-2.3714,-2.3741,-2.3739,-2.3771,-2.3768,-2.3777,-2.3785,-2.3835,-2.3851,-2.3825,-2.3912,-2.389,-2.3897,-2.3899,-2.3906,-2.3912,-2.3906,-2.3809,0,0,0,0,0,-2.358,-2.3614,-2.3642,-2.3688,-2.3701,-2.3719,-2.374,-2.3744,-2.3772,-2.3783,-2.3803,-2.383,-2.3864,-2.3886,-2.3919,-2.3976,-2.3983,-2.4001,-2.4006,-2.401,-2.4015,-2.4046,-2.4054,-2.3969,-2.3969,-2.3969,0,0,-2.36,-2.3623,-2.3644,-2.3691,-2.3712,-2.3747,-2.3729,-2.3767,-2.3793,-2.3788,-2.3836,-2.3852,-2.3883,-2.3936,-2.3961,-2.3951,-2.4041,-2.4015,-2.4019,-2.4021,-2.4051,-2.4059,-2.4066,-2.3971,-2.3971,-2.3971,0,0,-2.3653,-2.3674,-2.3714,-2.3736,-2.3767,-2.3779,-2.3789,-2.382,-2.383,-2.3879,-2.3876,-2.3908,-2.3967,-2.3989,-2.4008,-2.407,-2.4066,-2.4081,-2.4109,-2.4138,-2.4145,-2.4151,-2.4172,-2.418,-2.4086,-2.4086,-2.4086,0,-2.3673,-2.3726,-2.3735,-2.3773,-2.3794,-2.3792,-2.3833,-2.3853,-2.3894,-2.3909,-2.3898,-2.3972,-2.3992,-2.405,-2.4066,-2.4082,-2.4092,-2.4076,-2.4143,-2.4149,-2.4155,-2.4175,-2.4183,-2.4087,-2.4087,-2.4087,-2.4087,0,-2.3748,-2.3785,-2.3814,-2.3853,-2.3878,-2.3917,-2.3932,-2.3956,-2.3959,-2.3972,-2.4021,-2.4046,-2.4084,-2.4099,-2.4102,-2.4157,-2.415,-2.4141,-2.4119,-2.4164,-2.4184,-2.4192,-2.409,-2.4089,-2.4089,-2.4088,0,0,-2.381,-2.3855,-2.3865,-2.3883,-2.3919,-2.3947,-2.3987,-2.4024,-2.4043,-2.4072,-2.4105,-2.4156,-2.4147,-2.4169,-2.4175,-2.4201,-2.4248,-2.4189,-2.419,-2.4198,-2.431,-2.4315,-2.4324,-2.4246,-2.4248,-2.4249,-2.4307,0,-2.3866,-2.3935,-2.3945,-2.4006,-2.404,-2.4039,-2.4074,-2.4099,-2.4113,-2.4143,-2.4159,-2.4194,-2.4181,-2.4194,-2.422,-2.4237,-2.427,-2.4233,-2.4276,-2.4278,-2.4267,-2.4334,-2.434,-2.4394,-2.4315,-2.4316,-2.4317,0,-2.394,-2.397,-2.4035,-2.4065,-2.408,-2.4111,-2.4145,-2.4175,-2.4204,-2.4212,-2.4237,-2.4239,-2.428,-2.4258,-2.4315,-2.4289,-2.4308,-2.4319,-2.4321,-2.4324,-2.4299,-2.4338,-2.4411,-2.4418,-2.4329,-2.4328,-2.4327,0,-2.3977,-2.4035,-2.408,-2.4096,-2.4133,-2.4155,-2.4171,-2.4199,-2.4221,-2.4251,-2.4265,-2.4301,-2.432,-2.4347,-2.4359,-2.4342,-2.4414,-2.4394,-2.4422,-2.4421,-2.4435,-2.4434,-2.4511,-2.445,-2.445,-2.445,-2.445,0,-2.4037,-2.4076,-2.4097,-2.4125,-2.4169,-2.4181,-2.4224,-2.424,-2.4265,-2.4296,-2.4298,-2.4327,-2.4343,-2.4374,-2.4384,-2.4429,-2.4438,-2.4445,-2.4447,-2.4444,-2.4443,-2.4455,-2.4451,-2.4452,-2.4452,-2.4451,-2.4451,0,-2.4086,-2.4101,-2.4151,-2.4182,-2.4191,-2.4222,-2.4249,-2.4276,-2.429,-2.433,-2.434,-2.4361,-2.4399,-2.4414,-2.446,-2.4467,-2.4518,-2.4518,-2.4507,-2.4508,-2.4534,-2.4531,-2.462,-2.4632,-2.4565,-2.4565,-2.4566,0,-2.4122,-2.4152,-2.4187,-2.4208,-2.4225,-2.4259,-2.4281,-2.4294,-2.4317,-2.4352,-2.4375,-2.4413,-2.4443,-2.4503,-2.4523,-2.4558,-2.4558,-2.4587,-2.4563,-2.4559,-2.4556,-2.4554,-2.4556,-2.459,-2.4591,-2.4591,-2.4592,0,-2.4185,-2.4191,-2.4223,-2.4258,-2.4284,-2.4312,-2.4339,-2.4356,-2.4373,-2.4399,-2.4437,-2.4461,-2.4508,-2.4544,-2.4581,-2.4598,-2.4598,-2.46,-2.4608,-2.4604,-2.4596,-2.4599,-2.4518,-2.4597,-2.4596,-2.4596,-2.4596,-2.4596,-2.4228,-2.4254,-2.4282,-2.4318,-2.434,-2.4365,-2.4392,-2.4409,-2.4441,-2.448,-2.4486,-2.4527,-2.4555,-2.4604,-2.4623,-2.4655,-2.4648,-2.466,-2.4662,-2.4665,-2.4666,-2.4593,-2.4662,-2.4662,-2.4662,-2.4662,-2.4662,0,-2.4289,-2.4308,-2.434,-2.4378,-2.4406,-2.4404,-2.4434,-2.4457,-2.4493,-2.4519,-2.4549,-2.4593,-2.4629,-2.4652,-2.4688,-2.471,-2.471,-2.4718,-2.4716,-2.472,-2.4671,-2.466,-2.4717,-2.4717,-2.4717,-2.4717,-2.4717,-2.4717,-2.4325,-2.4369,-2.4379,-2.4434,-2.4452,-2.4492,-2.4509,-2.4533,-2.4554,-2.4603,-2.4632,-2.4647,-2.4673,-2.4711,-2.4744,-2.475,-2.4762,-2.4771,-2.4776,-2.4729,-2.4724,-2.4718,-2.4707,-2.4774,-2.4774,-2.4822,-2.4823,-2.4823]},{"header":{"parameterUnit":"m.s-1","parameterCategory":1,"la1":30.2991,"la2":30.254,"lo1":-89.0895,"lo2":-89.0444,"dy":0.0017,"dx":0.0017,"nx":28,"ny":28,"refTime":"2024-02-09T09:00:00:Z","depth":0,"parameterNumber":3,"parameterNumberName":"V-component_of_WINDS"},"data":[0,0,0,0,0,0,0,0,0,0,0,0,0,0,0,0,0,0,0,0,0,0,0,0,0,0,0,0,0,0,0,0,0,0,0,0,0,0,0,0,0,0,0,0,0,0,0,0,0,0,0,0,0,0,0,0,0,0,2.2511,2.2511,0,2.2567,2.2568,2.2569,2.2596,2.2596,2.2596,2.2596,2.2655,2.2657,2.2658,0,0,0,0,0,0,0,0,0,0,0,0,0,2.2429,2.243,2.2511,2.2511,2.2512,2.2567,2.2568,2.2569,2.2596,2.2596,2.2596,2.2596,2.2655,2.2656,2.2658,0,0,0,0,0,0,0,0,0,0,0,0,0,2.2473,2.2431,2.2511,2.2532,2.2535,2.2567,2.2568,2.2569,2.2596,2.2596,2.2596,2.2596,2.2654,2.2656,2.2659,2.2673,0,0,2.2666,2.2667,0,0,0,0,0,0,0,0,2.247,2.2476,2.2529,2.2531,2.2534,2.2575,2.2561,2.2604,2.2596,2.2573,2.2596,2.2596,2.2628,2.2633,2.2644,2.2676,2.2679,2.2666,2.2667,2.2668,2.2669,0,0,0,0,0,0,0,2.2467,2.2473,2.2533,2.2529,2.2533,2.254,2.2547,2.2569,2.26,2.2575,2.2577,2.2584,2.263,2.2641,2.2645,2.2679,2.2666,2.2668,2.2669,2.267,2.273,2.273,0,0,0,0,0,0,2.246,2.2471,2.2531,2.2535,2.2501,2.2542,2.2549,2.2562,2.26,2.2606,2.2584,2.2585,2.2637,2.2642,2.2647,2.2669,2.2668,2.2671,2.2672,2.273,2.273,2.273,0,0,0,0,0,0,2.2458,2.2465,2.2529,2.2503,2.2512,2.2543,2.2558,2.2563,2.2574,2.2606,2.2612,2.2589,2.2637,2.2644,2.2667,2.2671,2.2672,2.2674,2.273,2.273,2.273,2.2711,0,0,0,0,0,0,2.2456,2.2465,2.247,2.2503,2.2513,2.2547,2.2558,2.2564,2.2578,2.258,2.2613,2.2619,2.2638,2.2664,2.267,2.2675,2.2676,2.2729,2.273,2.273,2.2711,2.2711,2.271,0,0,0,0,0,2.2453,2.2462,2.247,2.2477,2.252,2.2547,2.2553,2.2575,2.2578,2.2584,2.2606,2.2618,2.267,2.2666,2.2673,2.2678,2.2729,2.273,2.273,2.2712,2.2711,2.271,0,0,0,0,0,0,2.2427,2.2466,2.2476,2.2496,2.2518,2.2552,2.256,2.2573,2.2595,2.2596,2.2622,2.2629,2.2651,2.2667,2.2662,2.2696,2.2701,2.2703,2.2685,2.2684,2.2683,2.2679,2.2678,0,0,0,0,0,2.2424,2.2442,2.2475,2.249,2.2501,2.2528,2.2541,2.2556,2.258,2.259,2.2612,2.2636,2.2658,2.2672,2.2694,2.2714,2.2723,2.2722,2.2721,2.272,2.2721,2.2736,2.2736,2.2731,2.2731,2.2731,0,0,2.2417,2.2441,2.2451,2.2485,2.2504,2.2524,2.2536,2.2555,2.257,2.2593,2.2617,2.2634,2.2662,2.2685,2.2696,2.2699,2.2725,2.272,2.272,2.2722,2.2736,2.2737,2.2737,2.2732,2.2732,2.2732,0,0,2.2415,2.2434,2.2449,2.2468,2.2498,2.2516,2.252,2.2553,2.2565,2.259,2.2608,2.2626,2.2663,2.2683,2.2698,2.2706,2.2719,2.2712,2.2708,2.2722,2.2722,2.2723,2.2727,2.2729,2.2714,2.2713,2.2713,0,2.2403,2.2432,2.2455,2.2474,2.249,2.2512,2.2528,2.2546,2.258,2.2591,2.2594,2.2643,2.2663,2.2691,2.2694,2.2704,2.2711,2.2709,2.272,2.2721,2.2722,2.2727,2.2728,2.2713,2.2713,2.2713,2.2713,0,2.2417,2.2437,2.2446,2.248,2.2496,2.2513,2.254,2.2555,2.2569,2.2588,2.2613,2.2639,2.2667,2.2675,2.2689,2.2706,2.2708,2.2715,2.2721,2.2721,2.2726,2.2728,2.2711,2.2712,2.2712,2.2712,0,0,2.2399,2.2447,2.245,2.2466,2.2501,2.2518,2.2537,2.2565,2.2578,2.2601,2.2619,2.2651,2.2659,2.2676,2.2692,2.2704,2.2711,2.271,2.2712,2.2711,2.2735,2.2729,2.2731,2.272,2.272,2.272,2.2733,0,2.2403,2.2438,2.246,2.2487,2.2507,2.253,2.2547,2.2571,2.2589,2.261,2.2631,2.2654,2.2661,2.2672,2.2685,2.2707,2.2716,2.2707,2.2738,2.2739,2.2731,2.2733,2.2727,2.2738,2.2735,2.2735,2.2735,0,2.2411,2.2435,2.2464,2.2499,2.2508,2.2523,2.2552,2.2571,2.2599,2.2612,2.2632,2.2649,2.2672,2.2676,2.2708,2.2701,2.2716,2.2729,2.273,2.2734,2.2737,2.2739,2.2741,2.2743,2.2738,2.2738,2.2738,0,2.2397,2.2436,2.246,2.2473,2.2514,2.2524,2.2542,2.257,2.2586,2.2612,2.2623,2.265,2.2666,2.2687,2.2712,2.2712,2.2743,2.2748,2.2756,2.2755,2.2761,2.2761,2.2767,2.2769,2.2769,2.2769,2.2769,0,2.2399,2.2416,2.2454,2.2468,2.2489,2.2516,2.2536,2.2555,2.2581,2.26,2.2621,2.2639,2.267,2.2692,2.2711,2.2737,2.2743,2.2755,2.276,2.2754,2.2752,2.2764,2.2764,2.2769,2.2769,2.2769,2.2769,0,2.2386,2.2412,2.2439,2.2476,2.2486,2.25,2.2532,2.2548,2.2568,2.2593,2.26,2.2632,2.266,2.2687,2.2723,2.2736,2.2762,2.2768,2.2752,2.2756,2.2762,2.2762,2.2777,2.2781,2.2779,2.2779,2.2779,0,2.2386,2.24,2.2439,2.2454,2.2472,2.2494,2.2512,2.2539,2.2556,2.2591,2.2603,2.2632,2.2656,2.2699,2.2727,2.2755,2.2763,2.2767,2.2768,2.2761,2.2765,2.2764,2.2767,2.2766,2.2766,2.2766,2.2766,0,2.2384,2.2397,2.242,2.245,2.247,2.2494,2.2519,2.253,2.2562,2.2581,2.2609,2.2628,2.2667,2.2696,2.2728,2.2747,2.2763,2.2765,2.2769,2.2763,2.2754,2.2761,2.2752,2.2765,2.2765,2.2765,2.2765,2.2765,2.2379,2.2393,2.2424,2.245,2.2472,2.2495,2.2513,2.2536,2.256,2.2594,2.2608,2.2638,2.2668,2.2713,2.2732,2.2757,2.276,2.2765,2.2766,2.2767,2.2767,2.2749,2.2762,2.2762,2.2762,2.2762,2.2763,0,2.2379,2.24,2.2424,2.2459,2.2481,2.2493,2.2522,2.2539,2.2565,2.2592,2.2616,2.2651,2.268,2.271,2.2741,2.2755,2.2763,2.2762,2.2762,2.2766,2.2761,2.2755,2.2755,2.2755,2.2755,2.2755,2.2755,2.2755,2.2381,2.2407,2.2424,2.2462,2.2483,2.2512,2.2528,2.255,2.2572,2.2609,2.2634,2.2654,2.2683,2.2716,2.2744,2.2753,2.2764,2.2761,2.2772,2.2766,2.2766,2.2767,2.2762,2.2763,2.2763,2.2776,2.2776,2.2776]}]]